Terminal Aerodrome Forecast
Issued by NWS Mt. Holly, NJ

Home | Current Version | Previous Version | Text Only | Print | Product List | Glossary On
Versions: 1 2 3 4 5 6 7 8 9 10 11 12 13 14 15 16 17 18 19 20 21 22 23 24 25 26 27 28 29 30 31 32 33 34 35 36 37 38 39 40 41 42 43 44 45 46 47 48 49 50
000
FTUS41 KPHI 051120
TAFABE
TAF
KABE 051120Z 0512/0612 32010KT 2SM -SN BR SCT005 OVC025
      TEMPO 0514/0518 1/2SM SN FG OVC010
     FM052200 33010KT P6SM OVC025
     FM060200 32007KT P6SM BKN100=

USA.gov is the U.S. government's official web portal to all federal, state and local government web resources and services.